St. Johns, AZ

10:02 AM MST on December 07, 2019 (GMT -0700)
Saint Johns Industrial

Weather History for KSJN - November, 2019

Change the Weather History Date:

Saturday, November 16, 2019

  Actual Average (WUND) Record (WUND)
Temperature  
Mean Temperature 44 °F -  
Max Temperature 63 °F - - (-1)
Min Temperature 26 °F - - (-1)
Degree Days  
Heating Degree Days 20    
Moisture  
Dew Point 24 °F    
Average Humidity 47    
Maximum Humidity 69    
Minimum Humidity 13    
Precipitation  
Precipitation 0.00 in - - ()
Sea Level Pressure  
Sea Level Pressure 30.08 in    
Wind  
Wind Speed 2 mph (SW)    
Max Wind Speed 8 mph    
Max Gust Speed -    
Visibility 10 miles    
Events      
Averages and records for this station are not official NWS values.
T = Trace of Precipitation, MM = Missing Value Source: NWS Daily Summary

Daily Weather History Graph

Daily Weather History Graph

Search for Another Location

Airport or City:

Astronomy

Nov. 16, 2019 Rise Set
Actual Time 6:51 AM MST 5:12 PM MST
Civil Twilight 6:25 AM MST 5:39 PM MST
Nautical Twilight 5:54 AM MST 6:09 PM MST
Astronomical Twilight 5:24 AM MST 6:39 PM MST
Moon 8:52 PM MST (11/16) 10:44 AM MST (11/16)
Length of Visible Light 11h 14m
Length of Day
10h 20m
Waning Gibbous, 82% of the Moon is Illuminated
Nov 16
Waning Gibbous
Nov 19
Last Quarter
Nov 26
New
Dec 3
First Quarter
Dec 11
Full

Hourly Weather History & Observations

Time (MST) Temp. Windchill Dew Point Humidity Pressure Visibility Wind Dir Wind Speed Gust Speed Precip Events Conditions
12:54 AM 37.9 °F - 23.0 °F 55% 30.03 in 10.0 mi Calm Calm - N/A   Clear
1:54 AM 36.0 °F - 24.1 °F 62% 30.04 in 10.0 mi Calm Calm - N/A   Clear
2:54 AM 36.0 °F - 24.1 °F 62% 30.04 in 10.0 mi Calm Calm - N/A   Clear
3:54 AM 36.0 °F 33.3 °F 24.1 °F 62% 30.03 in 10.0 mi South 3.5 mph - N/A   Clear
4:54 AM 32.0 °F 28.7 °F 23.0 °F 69% 30.07 in 10.0 mi WNW 3.5 mph - N/A   Clear
5:54 AM 32.0 °F - 23.0 °F 69% 30.12 in 10.0 mi Calm Calm - N/A   Clear
6:54 AM 30.0 °F - 21.0 °F 69% 30.15 in 10.0 mi Calm Calm - N/A   Clear
7:54 AM 34.0 °F - 23.0 °F 64% 30.15 in 10.0 mi Calm Calm - N/A   Clear
8:54 AM 44.1 °F - 25.0 °F 47% 30.11 in 10.0 mi Calm Calm - N/A   Clear
9:54 AM 48.9 °F - 25.0 °F 39% 30.10 in 10.0 mi Calm Calm - N/A   Clear
10:54 AM 53.1 °F - 26.1 °F 35% 30.07 in 10.0 mi Calm Calm - N/A   Clear
11:54 AM 57.0 °F - 26.1 °F 30% 30.04 in 10.0 mi North 3.5 mph - N/A   Clear
12:54 PM 57.9 °F - 26.1 °F 30% 30.03 in 10.0 mi Calm Calm - N/A   Clear
1:54 PM 59.0 °F - 26.1 °F 28% 30.02 in 10.0 mi NNW 3.5 mph - N/A   Clear
2:54 PM 61.0 °F - 27.0 °F 27% 30.00 in 10.0 mi WNW 8.1 mph - N/A   Clear
3:54 PM 60.1 °F - 28.0 °F 30% 30.01 in 10.0 mi NW 8.1 mph - N/A   Clear
4:54 PM 57.9 °F - 27.0 °F 31% 30.04 in 10.0 mi WNW 5.8 mph - N/A   Clear
5:54 PM 50.0 °F - 27.0 °F 41% 30.08 in 10.0 mi West 5.8 mph - N/A   Clear
6:54 PM 46.0 °F 44.8 °F 26.1 °F 46% 30.12 in 10.0 mi South 3.5 mph - N/A   Clear
7:54 PM 43.0 °F 40.3 °F 26.1 °F 51% 30.13 in 10.0 mi South 4.6 mph - N/A   Clear
8:54 PM 42.1 °F 38.4 °F 25.0 °F 51% 30.12 in 10.0 mi South 5.8 mph - N/A   Clear
9:54 PM 41.0 °F 36.4 °F 24.1 °F 51% 30.10 in 10.0 mi South 6.9 mph - N/A   Clear
10:54 PM 42.1 °F 40.2 °F 24.1 °F 49% 30.09 in 10.0 mi South 3.5 mph - N/A   Clear
11:54 PM 39.9 °F 35.1 °F 23.0 °F 51% 30.10 in 10.0 mi South 6.9 mph - N/A   Clear